| time (UTC) | temp C | wind direction | speed KPH | gust KPH | rain 1hr cm | rain 24hr cm | rain mn cm | humidity % | barometer mb |
| 20260502163622 | 22 | 315 | 1.6 | 4.8 | 0.00 | 0.03 | 0.00 | 44 | 1048.6 |
| 20260502163522 | 22 | 294 | 3.2 | 6.4 | 0.00 | 0.03 | 0.00 | 45 | 1048.6 |
| 20260502162620 | 22 | 132 | 0.0 | 1.6 | 0.00 | 0.03 | 0.00 | 43 | 1048.5 |
| 20260502161621 | 22 | 60 | 3.2 | 6.4 | 0.00 | 0.03 | 0.00 | 48 | 1048.6 |
| 20260502160720 | 21 | 32 | 4.8 | 9.7 | 0.00 | 0.03 | 0.00 | 49 | 1048.7 |
| 20260502151923 | 21 | 22 | 1.6 | 3.2 | 0.00 | 0.03 | 0.00 | 60 | 1048.5 |
| 20260502150821 | 20 | 325 | 0.0 | 3.2 | 0.00 | 0.05 | 0.00 | 60 | 1048.5 |
| 20260502123020 | 10 | 45 | 0.0 | 0.0 | 0.00 | 0.15 | 0.00 | 96 | 1047.1 |
| 20260502122020 | 9 | 45 | 0.0 | 0.0 | 0.00 | 0.15 | 0.00 | 97 | 1046.9 |
| 20260502121922 | 9 | 45 | 0.0 | 0.0 | 0.00 | 0.15 | 0.00 | 97 | 1046.9 |
| 20260502115924 | 9 | 45 | 0.0 | 0.0 | 0.00 | 0.15 | 0.00 | 97 | 1046.4 |
| 20260502114937 | 9 | 45 | 0.0 | 0.0 | 0.00 | 0.15 | 0.00 | 96 | 1046.2 |
| 20260502114021 | 9 | 45 | 0.0 | 0.0 | 0.00 | 0.15 | 0.00 | 97 | 1046.3 |
| 20260502113919 | 9 | 45 | 0.0 | 0.0 | 0.00 | 0.15 | 0.00 | 96 | 1046.3 |
| 20260502112920 | 9 | 45 | 0.0 | 0.0 | 0.00 | 0.15 | 0.00 | 96 | 1046.3 |
| 20260502111938 | 9 | 45 | 0.0 | 0.0 | 0.00 | 0.15 | 0.00 | 97 | 1046.3 |
| 20260502111020 | 9 | 45 | 0.0 | 0.0 | 0.00 | 0.15 | 0.00 | 97 | 1046.1 |
| 20260502110047 | 10 | 45 | 0.0 | 0.0 | 0.00 | 0.15 | 0.00 | 97 | 1046.0 |
| 20260502105122 | 10 | 45 | 0.0 | 0.0 | 0.00 | 0.15 | 0.00 | 96 | 1045.8 |
| 20260502104221 | 10 | 45 | 0.0 | 0.0 | 0.00 | 0.15 | 0.00 | 96 | 1045.8 |
| 20260502103222 | 10 | 45 | 0.0 | 0.0 | 0.00 | 0.15 | 0.00 | 95 | 1045.7 |
| 20260502102222 | 10 | 45 | 0.0 | 0.0 | 0.00 | 0.15 | 0.00 | 96 | 1045.6 |
| 20260502101238 | 10 | 45 | 0.0 | 0.0 | 0.00 | 0.15 | 0.00 | 96 | 1045.4 |
| 20260502100240 | 10 | 45 | 0.0 | 0.0 | 0.00 | 0.15 | 0.00 | 96 | 1045.5 |
| 20260502090422 | 11 | 45 | 0.0 | 0.0 | 0.00 | 0.18 | 0.00 | 95 | 1045.3 |
| 20260502071222 | 12 | 157 | 0.0 | 0.0 | 0.00 | 0.18 | 0.00 | 96 | 1045.4 |
| 20260502071139 | 12 | 157 | 0.0 | 0.0 | 0.00 | 0.18 | 0.00 | 95 | 1045.4 |
| 20260502065137 | 12 | 157 | 0.0 | 0.0 | 0.00 | 0.18 | 0.00 | 94 | 1045.2 |
| 20260502061122 | 12 | 157 | 0.0 | 0.0 | 0.00 | 0.18 | 0.00 | 94 | 1045.6 |
| 20260502055138 | 12 | 157 | 0.0 | 0.0 | 0.00 | 0.18 | 0.00 | 94 | 1045.6 |
| 20260502054221 | 12 | 157 | 0.0 | 0.0 | 0.00 | 0.18 | 0.00 | 94 | 1045.6 |
| 20260502053320 | 12 | 157 | 0.0 | 0.0 | 0.00 | 0.18 | 0.00 | 93 | 1045.7 |
| 20260502053221 | 12 | 157 | 0.0 | 0.0 | 0.00 | 0.18 | 0.00 | 94 | 1045.7 |
| 20260502052222 | 12 | 157 | 0.0 | 0.0 | 0.00 | 0.18 | 0.00 | 94 | 1045.7 |
| 20260502051321 | 12 | 157 | 0.0 | 0.0 | 0.00 | 0.18 | 0.00 | 94 | 1045.7 |
| 20260502050320 | 12 | 157 | 0.0 | 0.0 | 0.00 | 0.18 | 0.00 | 93 | 1045.8 |
| 20260502045344 | 12 | 157 | 0.0 | 0.0 | 0.00 | 0.18 | 0.18 | 92 | 1045.7 |
| 20260502044427 | 12 | 157 | 0.0 | 0.0 | 0.00 | 0.18 | 0.18 | 93 | 1045.6 |
| 20260502043426 | 12 | 157 | 0.0 | 0.0 | 0.00 | 0.18 | 0.18 | 92 | 1045.3 |
| 20260502035545 | 12 | 157 | 0.0 | 0.0 | 0.00 | 0.18 | 0.18 | 93 | 1044.9 |
| 20260502034527 | 12 | 157 | 0.0 | 0.0 | 0.00 | 0.18 | 0.18 | 92 | 1044.9 |
| 20260502033626 | 12 | 157 | 0.0 | 0.0 | 0.00 | 0.18 | 0.18 | 93 | 1044.9 |
| 20260502032627 | 13 | 157 | 0.0 | 0.0 | 0.00 | 0.18 | 0.18 | 92 | 1044.7 |
| 20260502031628 | 13 | 157 | 0.0 | 0.0 | 0.00 | 0.18 | 0.18 | 93 | 1044.8 |
| 20260502030727 | 13 | 157 | 0.0 | 0.0 | 0.00 | 0.18 | 0.18 | 93 | 1044.8 |
| 20260502025728 | 13 | 157 | 0.0 | 0.0 | 0.00 | 0.18 | 0.18 | 92 | 1044.7 |
| 20260502024729 | 13 | 157 | 0.0 | 0.0 | 0.00 | 0.18 | 0.18 | 91 | 1044.7 |
| 20260502023827 | 13 | 157 | 0.0 | 0.0 | 0.00 | 0.18 | 0.18 | 92 | 1044.6 |
| 20260502022827 | 13 | 157 | 0.0 | 0.0 | 0.00 | 0.18 | 0.18 | 91 | 1044.4 |
| 20260502021829 | 13 | 157 | 0.0 | 0.0 | 0.00 | 0.18 | 0.18 | 90 | 1044.4 |
| 20260502013727 | 13 | 157 | 0.0 | 0.0 | 0.00 | 0.18 | 0.18 | 89 | 1043.6 |
| 20260502012827 | 13 | 157 | 0.0 | 0.0 | 0.00 | 0.18 | 0.18 | 88 | 1043.8 |
| 20260502011827 | 13 | 157 | 0.0 | 0.0 | 0.00 | 0.18 | 0.18 | 87 | 1043.6 |
| 20260502010829 | 13 | 157 | 0.0 | 0.0 | 0.00 | 0.18 | 0.18 | 87 | 1043.7 |
| 20260502004827 | 14 | 157 | 0.0 | 0.0 | 0.00 | 0.18 | 0.18 | 86 | 1043.1 |
| 20260502001828 | 15 | 157 | 0.0 | 0.0 | 0.00 | 0.18 | 0.18 | 83 | 1043.1 |
| 20260502000828 | 15 | 157 | 0.0 | 0.0 | 0.00 | 0.18 | 0.18 | 81 | 1043.0 |
| 20260501235927 | 15 | 157 | 0.0 | 0.0 | 0.00 | 0.18 | 0.18 | 81 | 1043.0 |
| 20260501235027 | 15 | 157 | 0.0 | 0.0 | 0.00 | 0.18 | 0.18 | 79 | 1043.6 |
| 20260501234043 | 15 | 157 | 0.0 | 0.0 | 0.00 | 0.18 | 0.18 | 77 | 1043.5 |
| 20260501233043 | 15 | 157 | 0.0 | 0.0 | 0.00 | 0.18 | 0.18 | 78 | 1043.6 |
| 20260501232143 | 15 | 157 | 0.0 | 0.0 | 0.00 | 0.18 | 0.18 | 76 | 1043.2 |
| 20260501231242 | 15 | 157 | 0.0 | 0.0 | 0.00 | 0.18 | 0.18 | 76 | 1043.0 |
| 20260501231127 | 15 | 157 | 0.0 | 0.0 | 0.00 | 0.18 | 0.18 | 76 | 1042.9 |
| 20260501225143 | 16 | 157 | 0.0 | 0.0 | 0.00 | 0.18 | 0.18 | 73 | 1042.8 |
| 20260501223127 | 16 | 157 | 0.0 | 0.0 | 0.00 | 0.18 | 0.18 | 72 | 1041.9 |
| 20260501222129 | 16 | 157 | 0.0 | 0.0 | 0.00 | 0.18 | 0.18 | 72 | 1041.7 |
| 20260501221227 | 16 | 157 | 0.0 | 0.0 | 0.00 | 0.18 | 0.18 | 72 | 1041.7 |
| 20260501220227 | 16 | 157 | 0.0 | 0.0 | 0.00 | 0.18 | 0.18 | 71 | 1041.8 |
| 20260501215244 | 16 | 157 | 0.0 | 0.0 | 0.00 | 0.18 | 0.18 | 69 | 1042.0 |
| 20260501214325 | 16 | 180 | 0.0 | 0.0 | 0.00 | 0.18 | 0.18 | 67 | 1041.9 |
| 20260501213327 | 16 | 337 | 0.0 | 0.0 | 0.00 | 0.18 | 0.18 | 67 | 1042.5 |
| 20260501212426 | 16 | 337 | 0.0 | 0.0 | 0.00 | 0.18 | 0.18 | 66 | 1042.4 |
| 20260501212327 | 16 | 337 | 0.0 | 1.6 | 0.00 | 0.18 | 0.18 | 66 | 1042.5 |
| 20260501210328 | 16 | 360 | 1.6 | 3.2 | 0.00 | 0.18 | 0.18 | 62 | 1042.4 |
| 20260501203526 | 16 | 358 | 4.8 | 11.3 | 0.00 | 0.20 | 0.18 | 63 | 1041.1 |
| 20260501200627 | 16 | 352 | 3.2 | 8.0 | 0.00 | 0.20 | 0.18 | 68 | 1041.9 |
| 20260501200527 | 16 | 350 | 4.8 | 11.3 | 0.00 | 0.20 | 0.18 | 69 | 1042.0 |
| 20260501195626 | 16 | 349 | 3.2 | 8.0 | 0.00 | 0.20 | 0.18 | 72 | 1041.7 |
| 20260501193727 | 15 | 349 | 6.4 | 11.3 | 0.00 | 0.20 | 0.18 | 77 | 1042.2 |
| 20260501193628 | 15 | 351 | 6.4 | 9.7 | 0.00 | 0.20 | 0.18 | 77 | 1042.3 |
| 20260501192727 | 15 | 51 | 1.6 | 4.8 | 0.00 | 0.20 | 0.18 | 79 | 1042.6 |
| 20260501191727 | 15 | 28 | 1.6 | 6.4 | 0.00 | 0.20 | 0.18 | 80 | 1042.9 |
| 20260501190727 | 15 | 320 | 3.2 | 6.4 | 0.00 | 0.20 | 0.18 | 80 | 1043.4 |
| 20260501185826 | 15 | 347 | 1.6 | 6.4 | 0.00 | 0.20 | 0.18 | 83 | 1043.7 |
| 20260501183827 | 14 | 10 | 3.2 | 6.4 | 0.00 | 0.20 | 0.18 | 84 | 1043.9 |
| 20260501182926 | 14 | 31 | 1.6 | 4.8 | 0.00 | 0.20 | 0.18 | 83 | 1044.0 |
| 20260501182827 | 14 | 27 | 0.0 | 4.8 | 0.00 | 0.20 | 0.18 | 84 | 1044.0 |
| 20260501181827 | 13 | 303 | 3.2 | 6.4 | 0.00 | 0.20 | 0.18 | 85 | 1044.2 |
| 20260501180827 | 13 | 45 | 1.6 | 4.8 | 0.03 | 0.20 | 0.18 | 86 | 1044.2 |
| 20260501175826 | 13 | 70 | 0.0 | 3.2 | 0.03 | 0.20 | 0.18 | 88 | 1044.7 |
| 20260501174828 | 13 | 300 | 1.6 | 3.2 | 0.03 | 0.20 | 0.18 | 88 | 1044.9 |
| 20260501172843 | 13 | 318 | 1.6 | 4.8 | 0.03 | 0.20 | 0.18 | 90 | 1044.9 |
| 20260501170826 | 13 | 339 | 0.0 | 0.0 | 0.00 | 0.18 | 0.15 | 91 | 1045.1 |